contact:dominique.lefevre@mio.osupytheas.fr, maurice.libes@osupytheas.fr, didier.mallarino@osupytheas.fr
Project:EMSO http://www.emso-fr.org/EMSO-France
Depth: 2436.0 m
Title:EMSO Ligure Ouest : Data MII capteur MICROCAT
DateTime_Computer,Latitude,Longitude,Temperature,Conductivity,Pressure,DateTime_Instrument
DateTime_Computer,Latitude,Longitude,degC,S m-1,dbar,DateTime_Instrument
2022-07-24T00:00:05Z,42.805,6.029,13.3006,4.60039,2470.614,2022-7-24T02:01:52Z
2022-07-24T00:03:08Z,42.805,6.029,13.3008,4.60039,2470.591,2022-7-24T02:04:55Z
2022-07-24T00:06:11Z,42.805,6.029,13.3006,4.60040,2470.6,2022-7-24T02:07:58Z
2022-07-24T00:09:14Z,42.805,6.029,13.3004,4.60039,2470.6,2022-7-24T02:11:01Z
2022-07-24T00:12:17Z,42.805,6.029,13.3003,4.60039,2470.6,2022-7-24T02:14:05Z
2022-07-24T00:15:21Z,42.805,6.029,13.3006,4.60039,2470.6,2022-7-24T02:17:08Z
2022-07-24T00:18:24Z,42.805,6.029,13.3004,4.60039,2470.614,2022-7-24T02:20:11Z
2022-07-24T00:21:27Z,42.805,6.029,13.3006,4.60042,2470.577,2022-7-24T02:23:14Z
2022-07-24T00:24:30Z,42.805,6.029,13.3008,4.60039,2470.6,2022-7-24T02:26:17Z
2022-07-24T00:27:33Z,42.805,6.029,13.3007,4.60039,2470.614,2022-7-24T02:29:20Z
2022-07-24T00:30:36Z,42.805,6.029,13.3005,4.60039,2470.577,2022-7-24T02:32:23Z
2022-07-24T00:33:39Z,42.805,6.029,13.3006,4.60039,2470.624,2022-7-24T02:35:26Z
2022-07-24T00:36:42Z,42.805,6.029,13.3007,4.60040,2470.646,2022-7-24T02:38:30Z
2022-07-24T00:39:46Z,42.805,6.029,13.3000,4.60040,2470.6,2022-7-24T02:41:33Z
2022-07-24T00:42:49Z,42.805,6.029,13.3006,4.60040,2470.614,2022-7-24T02:44:36Z
2022-07-24T00:45:52Z,42.805,6.029,13.3001,4.60039,2470.6,2022-7-24T02:47:39Z
2022-07-24T00:48:55Z,42.805,6.029,13.3004,4.60041,2470.624,2022-7-24T02:50:42Z
2022-07-24T00:51:58Z,42.805,6.029,13.3004,4.60039,2470.6,2022-7-24T02:53:45Z
2022-07-24T00:55:01Z,42.805,6.029,13.3005,4.60039,2470.624,2022-7-24T02:56:48Z
2022-07-24T00:58:04Z,42.805,6.029,13.3007,4.60039,2470.6,2022-7-24T02:59:51Z
2022-07-24T01:01:07Z,42.805,6.029,13.3007,4.60041,2470.6,2022-7-24T03:02:55Z
2022-07-24T01:04:10Z,42.805,6.029,13.3007,4.60039,2470.614,2022-7-24T03:05:58Z
2022-07-24T01:07:14Z,42.805,6.029,13.3005,4.60042,2470.646,2022-7-24T03:09:01Z
2022-07-24T01:10:17Z,42.805,6.029,13.3004,4.60039,2470.6,2022-7-24T03:12:04Z
2022-07-24T01:13:20Z,42.805,6.029,13.3004,4.60041,2470.6,2022-7-24T03:15:07Z
2022-07-24T01:16:23Z,42.805,6.029,13.3002,4.60040,2470.6,2022-7-24T03:18:10Z
2022-07-24T01:19:26Z,42.805,6.029,13.3005,4.60039,2470.624,2022-7-24T03:21:13Z
2022-07-24T01:22:29Z,42.805,6.029,13.3006,4.60039,2470.624,2022-7-24T03:24:16Z
2022-07-24T01:25:32Z,42.805,6.029,13.3003,4.60042,2470.624,2022-7-24T03:27:19Z
2022-07-24T01:28:35Z,42.805,6.029,13.3004,4.60040,2470.6,2022-7-24T03:30:23Z
2022-07-24T01:31:39Z,42.805,6.029,13.3003,4.60040,2470.624,2022-7-24T03:33:26Z
2022-07-24T01:34:42Z,42.805,6.029,13.3004,4.60039,2470.624,2022-7-24T03:36:29Z
2022-07-24T01:37:45Z,42.805,6.029,13.3006,4.60040,2470.6,2022-7-24T03:39:32Z
2022-07-24T01:40:48Z,42.805,6.029,13.3006,4.60041,2470.6,2022-7-24T03:42:35Z
2022-07-24T01:43:51Z,42.805,6.029,13.3004,4.60039,2470.6,2022-7-24T03:45:38Z
2022-07-24T01:46:54Z,42.805,6.029,13.3006,4.60041,2470.661,2022-7-24T03:48:41Z
2022-07-24T01:49:57Z,42.805,6.029,13.3004,4.60039,2470.6,2022-7-24T03:51:44Z
2022-07-24T01:53:00Z,42.805,6.029,13.3005,4.60040,2470.624,2022-7-24T03:54:48Z
2022-07-24T01:56:04Z,42.805,6.029,13.3005,4.60039,2470.6,2022-7-24T03:57:51Z
2022-07-24T01:59:07Z,42.805,6.029,13.3004,4.60042,2470.646,2022-7-24T04:00:54Z
2022-07-24T02:02:10Z,42.805,6.029,13.3007,4.60041,2470.646,2022-7-24T04:03:57Z
2022-07-24T02:05:13Z,42.805,6.029,13.3004,4.60039,2470.6,2022-7-24T04:07:00Z
2022-07-24T02:08:16Z,42.805,6.029,13.3004,4.60043,2470.637,2022-7-24T04:10:03Z
2022-07-24T02:11:19Z,42.805,6.029,13.3005,4.60039,2470.637,2022-7-24T04:13:06Z
2022-07-24T02:14:22Z,42.805,6.029,13.3007,4.60039,2470.624,2022-7-24T04:16:09Z
2022-07-24T02:17:25Z,42.805,6.029,13.3005,4.60039,2470.661,2022-7-24T04:19:13Z
2022-07-24T02:20:28Z,42.805,6.029,13.3008,4.60039,2470.646,2022-7-24T04:22:16Z
2022-07-24T02:23:32Z,42.805,6.029,13.3006,4.60039,2470.624,2022-7-24T04:25:19Z
2022-07-24T02:26:35Z,42.805,6.029,13.3006,4.60042,2470.6,2022-7-24T04:28:22Z
2022-07-24T02:29:38Z,42.805,6.029,13.3006,4.60040,2470.646,2022-7-24T04:31:25Z
2022-07-24T02:32:41Z,42.805,6.029,13.3004,4.60041,2470.624,2022-7-24T04:34:28Z
2022-07-24T02:35:44Z,42.805,6.029,13.3006,4.60040,2470.633,2022-7-24T04:37:31Z
2022-07-24T02:38:47Z,42.805,6.029,13.3004,4.60040,2470.624,2022-7-24T04:40:34Z
2022-07-24T02:41:50Z,42.805,6.029,13.3004,4.60040,2470.646,2022-7-24T04:43:38Z
2022-07-24T02:44:53Z,42.805,6.029,13.3004,4.60039,2470.624,2022-7-24T04:46:41Z
2022-07-24T02:47:57Z,42.805,6.029,13.3006,4.60042,2470.624,2022-7-24T04:49:44Z
2022-07-24T02:51:00Z,42.805,6.029,13.3007,4.60041,2470.624,2022-7-24T04:52:47Z
2022-07-24T02:54:03Z,42.805,6.029,13.3002,4.60041,2470.646,2022-7-24T04:55:50Z
2022-07-24T02:57:06Z,42.805,6.029,13.3004,4.60040,2470.637,2022-7-24T04:58:53Z
2022-07-24T03:00:09Z,42.805,6.029,13.3002,4.60039,2470.624,2022-7-24T05:01:56Z
2022-07-24T03:03:12Z,42.805,6.029,13.3005,4.60040,2470.684,2022-7-24T05:04:59Z
2022-07-24T03:06:15Z,42.805,6.029,13.3005,4.60040,2470.624,2022-7-24T05:08:02Z
2022-07-24T03:09:18Z,42.805,6.029,13.3008,4.60039,2470.646,2022-7-24T05:11:06Z
2022-07-24T03:12:22Z,42.805,6.029,13.3004,4.60041,2470.637,2022-7-24T05:14:09Z
2022-07-24T03:15:25Z,42.805,6.029,13.3008,4.60041,2470.637,2022-7-24T05:17:12Z
2022-07-24T03:18:28Z,42.805,6.029,13.3005,4.60039,2470.637,2022-7-24T05:20:15Z
2022-07-24T03:21:31Z,42.805,6.029,13.3005,4.60041,2470.6,2022-7-24T05:23:18Z
2022-07-24T03:24:34Z,42.805,6.029,13.3006,4.60040,2470.624,2022-7-24T05:26:21Z
2022-07-24T03:27:37Z,42.805,6.029,13.3004,4.60039,2470.624,2022-7-24T05:29:24Z
2022-07-24T03:30:40Z,42.805,6.029,13.3008,4.60041,2470.637,2022-7-24T05:32:27Z
2022-07-24T03:33:43Z,42.805,6.029,13.3010,4.60041,2470.661,2022-7-24T05:35:31Z
2022-07-24T03:36:47Z,42.805,6.029,13.3006,4.60040,2470.624,2022-7-24T05:38:34Z
2022-07-24T03:39:50Z,42.805,6.029,13.3007,4.60041,2470.684,2022-7-24T05:41:37Z
2022-07-24T03:42:53Z,42.805,6.029,13.3004,4.60043,2470.661,2022-7-24T05:44:40Z
2022-07-24T03:45:56Z,42.805,6.029,13.3004,4.60039,2470.624,2022-7-24T05:47:43Z
2022-07-24T03:48:59Z,42.805,6.029,13.3008,4.60039,2470.646,2022-7-24T05:50:46Z
2022-07-24T03:52:02Z,42.805,6.029,13.3004,4.60042,2470.661,2022-7-24T05:53:49Z
2022-07-24T03:55:05Z,42.805,6.029,13.3003,4.60039,2470.661,2022-7-24T05:56:52Z
2022-07-24T03:58:08Z,42.805,6.029,13.3003,4.60039,2470.661,2022-7-24T05:59:56Z
2022-07-24T04:01:12Z,42.805,6.029,13.3006,4.60044,2470.646,2022-7-24T06:02:59Z
2022-07-24T04:04:15Z,42.805,6.029,13.3006,4.60040,2470.661,2022-7-24T06:06:02Z
2022-07-24T04:07:18Z,42.805,6.029,13.3005,4.60040,2470.646,2022-7-24T06:09:05Z
2022-07-24T04:10:21Z,42.805,6.029,13.3006,4.60041,2470.637,2022-7-24T06:12:08Z
2022-07-24T04:13:24Z,42.805,6.029,13.3007,4.60039,2470.637,2022-7-24T06:15:11Z
2022-07-24T04:16:27Z,42.805,6.029,13.3006,4.60042,2470.624,2022-7-24T06:18:14Z
2022-07-24T04:19:30Z,42.805,6.029,13.3009,4.60042,2470.661,2022-7-24T06:21:17Z
2022-07-24T04:22:33Z,42.805,6.029,13.3003,4.60041,2470.646,2022-7-24T06:24:21Z
2022-07-24T04:25:37Z,42.805,6.029,13.3004,4.60042,2470.646,2022-7-24T06:27:24Z
2022-07-24T04:28:40Z,42.805,6.029,13.3006,4.60040,2470.646,2022-7-24T06:30:27Z
2022-07-24T04:31:43Z,42.805,6.029,13.3009,4.60043,2470.661,2022-7-24T06:33:30Z
2022-07-24T04:34:46Z,42.805,6.029,13.3006,4.60040,2470.684,2022-7-24T06:36:33Z
2022-07-24T04:37:49Z,42.805,6.029,13.3006,4.60040,2470.661,2022-7-24T06:39:36Z
2022-07-24T04:40:52Z,42.805,6.029,13.3006,4.60040,2470.646,2022-7-24T06:42:39Z
2022-07-24T04:43:55Z,42.805,6.029,13.3004,4.60039,2470.67,2022-7-24T06:45:42Z
2022-07-24T04:46:58Z,42.805,6.029,13.3005,4.60041,2470.624,2022-7-24T06:48:45Z
2022-07-24T04:50:01Z,42.805,6.029,13.3003,4.60042,2470.684,2022-7-24T06:51:49Z
2022-07-24T04:53:05Z,42.805,6.029,13.3008,4.60042,2470.67,2022-7-24T06:54:52Z
2022-07-24T04:56:08Z,42.805,6.029,13.3002,4.60042,2470.646,2022-7-24T06:57:55Z
2022-07-24T04:59:11Z,42.805,6.029,13.3007,4.60042,2470.637,2022-7-24T07:00:58Z
2022-07-24T05:02:14Z,42.805,6.029,13.3005,4.60039,2470.661,2022-7-24T07:04:01Z
2022-07-24T05:05:17Z,42.805,6.029,13.3005,4.60043,2470.661,2022-7-24T07:07:04Z
2022-07-24T05:08:20Z,42.805,6.029,13.3004,4.60039,2470.624,2022-7-24T07:10:07Z
2022-07-24T05:11:23Z,42.805,6.029,13.3005,4.60042,2470.637,2022-7-24T07:13:10Z
2022-07-24T05:14:26Z,42.805,6.029,13.3006,4.60039,2470.637,2022-7-24T07:16:14Z
2022-07-24T05:17:30Z,42.805,6.029,13.3006,4.60040,2470.624,2022-7-24T07:19:17Z
2022-07-24T05:20:33Z,42.805,6.029,13.3006,4.60042,2470.6,2022-7-24T07:22:20Z
2022-07-24T05:23:36Z,42.805,6.029,13.3006,4.60041,2470.624,2022-7-24T07:25:23Z
2022-07-24T05:26:39Z,42.805,6.029,13.3004,4.60040,2470.646,2022-7-24T07:28:26Z
2022-07-24T05:29:42Z,42.805,6.029,13.3003,4.60041,2470.646,2022-7-24T07:31:29Z
2022-07-24T05:32:45Z,42.805,6.029,13.3007,4.60040,2470.624,2022-7-24T07:34:32Z
2022-07-24T05:35:48Z,42.805,6.029,13.3004,4.60041,2470.624,2022-7-24T07:37:35Z
2022-07-24T05:38:51Z,42.805,6.029,13.3008,4.60043,2470.6,2022-7-24T07:40:39Z
2022-07-24T05:41:55Z,42.805,6.029,13.3004,4.60041,2470.624,2022-7-24T07:43:42Z
2022-07-24T05:44:58Z,42.805,6.029,13.3003,4.60039,2470.624,2022-7-24T07:46:45Z
2022-07-24T05:48:01Z,42.805,6.029,13.3007,4.60039,2470.637,2022-7-24T07:49:48Z
2022-07-24T05:51:04Z,42.805,6.029,13.3004,4.60040,2470.624,2022-7-24T07:52:51Z
2022-07-24T05:54:07Z,42.805,6.029,13.3004,4.60044,2470.6,2022-7-24T07:55:54Z
2022-07-24T05:57:10Z,42.805,6.029,13.3007,4.60041,2470.6,2022-7-24T07:58:57Z
2022-07-24T06:00:13Z,42.805,6.029,13.3004,4.60040,2470.624,2022-7-24T08:02:00Z
2022-07-24T06:03:16Z,42.805,6.029,13.3007,4.60039,2470.614,2022-7-24T08:05:04Z
2022-07-24T06:06:19Z,42.805,6.029,13.3006,4.60039,2470.637,2022-7-24T08:08:07Z
2022-07-24T06:09:23Z,42.805,6.029,13.3006,4.60039,2470.577,2022-7-24T08:11:10Z
2022-07-24T06:12:26Z,42.805,6.029,13.3006,4.60042,2470.6,2022-7-24T08:14:13Z
2022-07-24T06:15:29Z,42.805,6.029,13.3006,4.60042,2470.624,2022-7-24T08:17:16Z
2022-07-24T06:18:32Z,42.805,6.029,13.3000,4.60040,2470.637,2022-7-24T08:20:19Z
2022-07-24T06:21:35Z,42.805,6.029,13.3006,4.60040,2470.591,2022-7-24T08:23:22Z
2022-07-24T06:24:38Z,42.805,6.029,13.3002,4.60039,2470.646,2022-7-24T08:26:25Z
2022-07-24T06:27:41Z,42.805,6.029,13.3009,4.60041,2470.637,2022-7-24T08:29:28Z
2022-07-24T06:30:44Z,42.805,6.029,13.3004,4.60039,2470.577,2022-7-24T08:32:32Z
2022-07-24T06:33:48Z,42.805,6.029,13.3005,4.60039,2470.614,2022-7-24T08:35:35Z
2022-07-24T06:36:51Z,42.805,6.029,13.3005,4.60040,2470.577,2022-7-24T08:38:38Z
2022-07-24T06:39:54Z,42.805,6.029,13.3006,4.60040,2470.624,2022-7-24T08:41:41Z
2022-07-24T06:42:57Z,42.805,6.029,13.3005,4.60039,2470.577,2022-7-24T08:44:44Z
2022-07-24T06:46:00Z,42.805,6.029,13.3006,4.60039,2470.637,2022-7-24T08:47:47Z
2022-07-24T06:49:03Z,42.805,6.029,13.3002,4.60041,2470.637,2022-7-24T08:50:50Z
2022-07-24T06:52:06Z,42.805,6.029,13.3006,4.60039,2470.577,2022-7-24T08:53:53Z
2022-07-24T06:55:09Z,42.805,6.029,13.3006,4.60039,2470.6,2022-7-24T08:56:57Z
2022-07-24T06:58:13Z,42.805,6.029,13.3006,4.60040,2470.553,2022-7-24T09:00:00Z
2022-07-24T07:01:16Z,42.805,6.029,13.3006,4.60040,2470.637,2022-7-24T09:03:03Z
2022-07-24T07:04:19Z,42.805,6.029,13.3004,4.60038,2470.577,2022-7-24T09:06:06Z
2022-07-24T07:07:22Z,42.805,6.029,13.3000,4.60041,2470.614,2022-7-24T09:09:09Z
2022-07-24T07:10:25Z,42.805,6.029,13.3004,4.60039,2470.661,2022-7-24T09:12:12Z
2022-07-24T07:13:28Z,42.805,6.029,13.3004,4.60039,2470.6,2022-7-24T09:15:15Z
2022-07-24T07:16:31Z,42.805,6.029,13.3004,4.60039,2470.6,2022-7-24T09:18:18Z
2022-07-24T07:19:34Z,42.805,6.029,13.3006,4.60039,2470.577,2022-7-24T09:21:22Z
2022-07-24T07:22:37Z,42.805,6.029,13.3002,4.60039,2470.6,2022-7-24T09:24:25Z
2022-07-24T07:25:41Z,42.805,6.029,13.3005,4.60040,2470.6,2022-7-24T09:27:28Z
2022-07-24T07:28:44Z,42.805,6.029,13.3004,4.60039,2470.577,2022-7-24T09:30:31Z
2022-07-24T07:31:47Z,42.805,6.029,13.3005,4.60040,2470.577,2022-7-24T09:33:34Z
2022-07-24T07:34:50Z,42.805,6.029,13.3006,4.60039,2470.6,2022-7-24T09:36:37Z
2022-07-24T07:37:53Z,42.805,6.029,13.3004,4.60039,2470.6,2022-7-24T09:39:40Z
2022-07-24T07:40:56Z,42.805,6.029,13.3003,4.60041,2470.591,2022-7-24T09:42:43Z
2022-07-24T07:43:59Z,42.805,6.029,13.3000,4.60041,2470.553,2022-7-24T09:45:47Z
2022-07-24T07:47:03Z,42.805,6.029,13.3005,4.60039,2470.577,2022-7-24T09:48:50Z
2022-07-24T07:50:06Z,42.805,6.029,13.3006,4.60038,2470.6,2022-7-24T09:51:53Z
2022-07-24T07:53:09Z,42.805,6.029,13.3006,4.60039,2470.577,2022-7-24T09:54:56Z
2022-07-24T07:56:12Z,42.805,6.029,13.3003,4.60042,2470.553,2022-7-24T09:57:59Z
2022-07-24T07:59:15Z,42.805,6.029,13.3006,4.60039,2470.591,2022-7-24T10:01:02Z
2022-07-24T08:02:18Z,42.805,6.029,13.3005,4.60041,2470.577,2022-7-24T10:04:05Z
2022-07-24T08:05:21Z,42.805,6.029,13.3007,4.60041,2470.577,2022-7-24T10:07:08Z
2022-07-24T08:08:24Z,42.805,6.029,13.3004,4.60042,2470.577,2022-7-24T10:10:12Z
2022-07-24T08:11:27Z,42.805,6.029,13.3001,4.60039,2470.553,2022-7-24T10:13:15Z
2022-07-24T08:14:31Z,42.805,6.029,13.3003,4.60040,2470.577,2022-7-24T10:16:18Z
2022-07-24T08:17:34Z,42.805,6.029,13.3009,4.60041,2470.577,2022-7-24T10:19:21Z
2022-07-24T08:20:37Z,42.805,6.029,13.3003,4.60040,2470.577,2022-7-24T10:22:24Z
2022-07-24T08:23:40Z,42.805,6.029,13.3009,4.60040,2470.567,2022-7-24T10:25:27Z
2022-07-24T08:26:43Z,42.805,6.029,13.3006,4.60041,2470.591,2022-7-24T10:28:30Z
2022-07-24T08:29:46Z,42.805,6.029,13.3007,4.60040,2470.567,2022-7-24T10:31:33Z
2022-07-24T08:32:49Z,42.805,6.029,13.3006,4.60039,2470.614,2022-7-24T10:34:37Z
2022-07-24T08:35:53Z,42.805,6.029,13.3006,4.60039,2470.577,2022-7-24T10:37:40Z
2022-07-24T08:38:56Z,42.805,6.029,13.3004,4.60039,2470.563,2022-7-24T10:40:43Z
2022-07-24T08:41:59Z,42.805,6.029,13.3006,4.60039,2470.53,2022-7-24T10:43:46Z
2022-07-24T08:45:02Z,42.805,6.029,13.3006,4.60039,2470.577,2022-7-24T10:46:49Z
2022-07-24T08:48:05Z,42.805,6.029,13.3004,4.60040,2470.577,2022-7-24T10:49:52Z
2022-07-24T08:51:08Z,42.805,6.029,13.3006,4.60043,2470.6,2022-7-24T10:52:55Z
2022-07-24T08:54:11Z,42.805,6.029,13.3004,4.60039,2470.53,2022-7-24T10:55:58Z
2022-07-24T08:57:14Z,42.805,6.029,13.3006,4.60039,2470.507,2022-7-24T10:59:02Z
2022-07-24T09:00:18Z,42.805,6.029,13.3003,4.60040,2470.591,2022-7-24T11:02:05Z
2022-07-24T09:03:21Z,42.805,6.029,13.3004,4.60042,2470.553,2022-7-24T11:05:08Z
2022-07-24T09:06:24Z,42.805,6.029,13.3006,4.60042,2470.553,2022-7-24T11:08:11Z
2022-07-24T09:09:27Z,42.805,6.029,13.3008,4.60041,2470.553,2022-7-24T11:11:14Z
2022-07-24T09:12:30Z,42.805,6.029,13.3004,4.60039,2470.553,2022-7-24T11:14:17Z
2022-07-24T09:15:33Z,42.805,6.029,13.3004,4.60042,2470.614,2022-7-24T11:17:20Z
2022-07-24T09:18:36Z,42.805,6.029,13.3004,4.60040,2470.577,2022-7-24T11:20:23Z
2022-07-24T09:21:39Z,42.805,6.029,13.3004,4.60039,2470.53,2022-7-24T11:23:27Z
2022-07-24T09:24:43Z,42.805,6.029,13.3006,4.60043,2470.544,2022-7-24T11:26:30Z
2022-07-24T09:27:46Z,42.805,6.029,13.3006,4.60039,2470.53,2022-7-24T11:29:33Z
2022-07-24T09:30:49Z,42.805,6.029,13.3006,4.60039,2470.553,2022-7-24T11:32:36Z
2022-07-24T09:33:52Z,42.805,6.029,13.3006,4.60040,2470.577,2022-7-24T11:35:39Z
2022-07-24T09:36:55Z,42.805,6.029,13.3002,4.60039,2470.591,2022-7-24T11:38:42Z
2022-07-24T09:39:58Z,42.805,6.029,13.3006,4.60041,2470.53,2022-7-24T11:41:45Z
2022-07-24T09:43:01Z,42.805,6.029,13.3006,4.60040,2470.553,2022-7-24T11:44:48Z
2022-07-24T09:46:04Z,42.805,6.029,13.3004,4.60041,2470.553,2022-7-24T11:47:52Z
2022-07-24T09:49:08Z,42.805,6.029,13.3004,4.60042,2470.553,2022-7-24T11:50:55Z
2022-07-24T09:52:11Z,42.805,6.029,13.3004,4.60040,2470.544,2022-7-24T11:53:58Z
2022-07-24T09:55:14Z,42.805,6.029,13.3004,4.60041,2470.553,2022-7-24T11:57:01Z
2022-07-24T09:58:17Z,42.805,6.029,13.3004,4.60041,2470.567,2022-7-24T12:00:04Z
2022-07-24T10:01:20Z,42.805,6.029,13.3005,4.60042,2470.567,2022-7-24T12:03:07Z
2022-07-24T10:04:23Z,42.805,6.029,13.3004,4.60042,2470.553,2022-7-24T12:06:10Z
2022-07-24T10:07:26Z,42.805,6.029,13.3006,4.60041,2470.507,2022-7-24T12:09:13Z
2022-07-24T10:10:29Z,42.805,6.029,13.3004,4.60042,2470.577,2022-7-24T12:12:17Z
2022-07-24T10:13:33Z,42.805,6.029,13.3003,4.60039,2470.567,2022-7-24T12:15:20Z
2022-07-24T10:16:36Z,42.805,6.029,13.3004,4.60041,2470.553,2022-7-24T12:18:23Z
2022-07-24T10:19:39Z,42.805,6.029,13.3005,4.60042,2470.567,2022-7-24T12:21:26Z
2022-07-24T10:22:42Z,42.805,6.029,13.3005,4.60045,2470.544,2022-7-24T12:24:29Z
2022-07-24T10:25:45Z,42.805,6.029,13.3006,4.60042,2470.53,2022-7-24T12:27:32Z
2022-07-24T10:28:48Z,42.805,6.029,13.3004,4.60042,2470.507,2022-7-24T12:30:35Z
2022-07-24T10:31:51Z,42.805,6.029,13.3005,4.60042,2470.483,2022-7-24T12:33:38Z
2022-07-24T10:34:54Z,42.805,6.029,13.3005,4.60042,2470.53,2022-7-24T12:36:42Z
2022-07-24T10:37:58Z,42.805,6.029,13.3010,4.60047,2470.544,2022-7-24T12:39:45Z
2022-07-24T10:41:01Z,42.805,6.029,13.3006,4.60043,2470.53,2022-7-24T12:42:48Z
2022-07-24T10:44:04Z,42.805,6.029,13.3005,4.60042,2470.52,2022-7-24T12:45:51Z
2022-07-24T10:47:07Z,42.805,6.029,13.3002,4.60042,2470.53,2022-7-24T12:48:54Z
2022-07-24T10:50:10Z,42.805,6.029,13.3007,4.60046,2470.553,2022-7-24T12:51:57Z
2022-07-24T10:53:13Z,42.805,6.029,13.3004,4.60041,2470.53,2022-7-24T12:55:00Z
2022-07-24T10:56:16Z,42.805,6.029,13.3007,4.60041,2470.53,2022-7-24T12:58:03Z
2022-07-24T10:59:19Z,42.805,6.029,13.3006,4.60045,2470.507,2022-7-24T13:01:07Z
2022-07-24T11:02:23Z,42.805,6.029,13.3006,4.60040,2470.553,2022-7-24T13:04:10Z
2022-07-24T11:05:26Z,42.805,6.029,13.3006,4.60040,2470.53,2022-7-24T13:07:13Z
2022-07-24T11:08:29Z,42.805,6.029,13.3004,4.60039,2470.52,2022-7-24T13:10:16Z
2022-07-24T11:11:32Z,42.805,6.029,13.3006,4.60040,2470.553,2022-7-24T13:13:19Z
2022-07-24T11:14:35Z,42.805,6.029,13.3006,4.60042,2470.544,2022-7-24T13:16:22Z
2022-07-24T11:17:38Z,42.805,6.029,13.3008,4.60041,2470.53,2022-7-24T13:19:25Z
2022-07-24T11:20:41Z,42.805,6.029,13.3006,4.60044,2470.53,2022-7-24T13:22:28Z
2022-07-24T11:23:44Z,42.805,6.029,13.3005,4.60041,2470.53,2022-7-24T13:25:32Z
2022-07-24T11:26:48Z,42.805,6.029,13.3004,4.60041,2470.544,2022-7-24T13:28:35Z
2022-07-24T11:29:51Z,42.805,6.029,13.3004,4.60042,2470.53,2022-7-24T13:31:38Z
2022-07-24T11:32:54Z,42.805,6.029,13.3004,4.60043,2470.544,2022-7-24T13:34:41Z
2022-07-24T11:35:57Z,42.805,6.029,13.3004,4.60042,2470.567,2022-7-24T13:37:44Z
2022-07-24T11:39:00Z,42.805,6.029,13.3004,4.60042,2470.553,2022-7-24T13:40:47Z
2022-07-24T11:42:03Z,42.805,6.029,13.3007,4.60042,2470.516,2022-7-24T13:43:50Z
2022-07-24T11:45:06Z,42.805,6.029,13.3010,4.60042,2470.53,2022-7-24T13:46:54Z
2022-07-24T11:48:09Z,42.805,6.029,13.3006,4.60040,2470.553,2022-7-24T13:49:57Z
2022-07-24T11:51:13Z,42.805,6.029,13.3004,4.60043,2470.544,2022-7-24T13:53:00Z
2022-07-24T11:54:16Z,42.805,6.029,13.3006,4.60043,2470.53,2022-7-24T13:56:03Z
2022-07-24T11:57:19Z,42.805,6.029,13.3004,4.60042,2470.53,2022-7-24T13:59:06Z
2022-07-24T12:00:22Z,42.805,6.029,13.3006,4.60043,2470.544,2022-7-24T14:02:09Z
2022-07-24T12:03:25Z,42.805,6.029,13.3009,4.60041,2470.591,2022-7-24T14:05:12Z
2022-07-24T12:06:28Z,42.805,6.029,13.3006,4.60040,2470.507,2022-7-24T14:08:15Z
2022-07-24T12:09:31Z,42.805,6.029,13.3003,4.60046,2470.53,2022-7-24T14:11:19Z
2022-07-24T12:12:34Z,42.805,6.029,13.3004,4.60042,2470.53,2022-7-24T14:14:22Z
2022-07-24T12:15:38Z,42.805,6.029,13.3003,4.60043,2470.577,2022-7-24T14:17:25Z
2022-07-24T12:18:41Z,42.805,6.029,13.3006,4.60042,2470.577,2022-7-24T14:20:28Z
2022-07-24T12:21:44Z,42.805,6.029,13.3005,4.60042,2470.544,2022-7-24T14:23:31Z
2022-07-24T12:24:47Z,42.805,6.029,13.3003,4.60043,2470.53,2022-7-24T14:26:34Z
2022-07-24T12:27:50Z,42.805,6.029,13.3007,4.60043,2470.553,2022-7-24T14:29:37Z
2022-07-24T12:30:53Z,42.805,6.029,13.3008,4.60042,2470.553,2022-7-24T14:32:40Z
2022-07-24T12:33:56Z,42.805,6.029,13.3005,4.60042,2470.53,2022-7-24T14:35:44Z
2022-07-24T12:36:59Z,42.805,6.029,13.3006,4.60041,2470.577,2022-7-24T14:38:47Z
2022-07-24T12:40:03Z,42.805,6.029,13.3005,4.60042,2470.544,2022-7-24T14:41:50Z
2022-07-24T12:43:06Z,42.805,6.029,13.3006,4.60042,2470.553,2022-7-24T14:44:53Z
2022-07-24T12:46:09Z,42.805,6.029,13.3006,4.60041,2470.577,2022-7-24T14:47:56Z
2022-07-24T12:49:12Z,42.805,6.029,13.3009,4.60043,2470.577,2022-7-24T14:50:59Z
2022-07-24T12:52:15Z,42.805,6.029,13.3005,4.60043,2470.577,2022-7-24T14:54:02Z
2022-07-24T12:55:18Z,42.805,6.029,13.3005,4.60044,2470.53,2022-7-24T14:57:05Z
2022-07-24T12:58:21Z,42.805,6.029,13.3007,4.60043,2470.553,2022-7-24T15:00:09Z
2022-07-24T13:01:24Z,42.805,6.029,13.3006,4.60041,2470.553,2022-7-24T15:03:12Z
2022-07-24T13:04:28Z,42.805,6.029,13.3007,4.60042,2470.577,2022-7-24T15:06:15Z
2022-07-24T13:07:31Z,42.805,6.029,13.3004,4.60042,2470.553,2022-7-24T15:09:18Z
2022-07-24T13:10:34Z,42.805,6.029,13.3009,4.60042,2470.577,2022-7-24T15:12:21Z
2022-07-24T13:13:37Z,42.805,6.029,13.3006,4.60041,2470.6,2022-7-24T15:15:24Z
2022-07-24T13:16:40Z,42.805,6.029,13.3007,4.60043,2470.6,2022-7-24T15:18:27Z
2022-07-24T13:19:43Z,42.805,6.029,13.3004,4.60044,2470.577,2022-7-24T15:21:30Z
2022-07-24T13:22:46Z,42.805,6.029,13.3006,4.60044,2470.6,2022-7-24T15:24:34Z
2022-07-24T13:25:49Z,42.805,6.029,13.3005,4.60044,2470.577,2022-7-24T15:27:37Z
2022-07-24T13:28:53Z,42.805,6.029,13.3007,4.60045,2470.591,2022-7-24T15:30:40Z
2022-07-24T13:31:56Z,42.805,6.029,13.3006,4.60043,2470.6,2022-7-24T15:33:43Z
2022-07-24T13:34:59Z,42.805,6.029,13.3008,4.60044,2470.553,2022-7-24T15:36:46Z
2022-07-24T13:38:02Z,42.805,6.029,13.3009,4.60044,2470.614,2022-7-24T15:39:49Z
2022-07-24T13:41:05Z,42.805,6.029,13.3007,4.60044,2470.614,2022-7-24T15:42:52Z
2022-07-24T13:44:08Z,42.805,6.029,13.3006,4.60042,2470.591,2022-7-24T15:45:55Z
2022-07-24T13:47:11Z,42.805,6.029,13.3006,4.60042,2470.6,2022-7-24T15:48:59Z
2022-07-24T13:50:15Z,42.805,6.029,13.3007,4.60040,2470.591,2022-7-24T15:52:02Z
2022-07-24T13:53:18Z,42.805,6.029,13.3000,4.60044,2470.577,2022-7-24T15:55:05Z
2022-07-24T13:56:21Z,42.805,6.029,13.3008,4.60044,2470.624,2022-7-24T15:58:08Z
2022-07-24T13:59:24Z,42.805,6.029,13.3008,4.60042,2470.577,2022-7-24T16:01:11Z
2022-07-24T14:02:27Z,42.805,6.029,13.3007,4.60043,2470.6,2022-7-24T16:04:14Z
2022-07-24T14:05:30Z,42.805,6.029,13.3008,4.60045,2470.6,2022-7-24T16:07:17Z
2022-07-24T14:08:33Z,42.805,6.029,13.3004,4.60043,2470.6,2022-7-24T16:10:20Z
2022-07-24T14:11:36Z,42.805,6.029,13.3003,4.60043,2470.624,2022-7-24T16:13:24Z
2022-07-24T14:14:40Z,42.805,6.029,13.3008,4.60044,2470.624,2022-7-24T16:16:27Z
2022-07-24T14:17:43Z,42.805,6.029,13.3008,4.60043,2470.6,2022-7-24T16:19:30Z
2022-07-24T14:20:46Z,42.805,6.029,13.3005,4.60044,2470.6,2022-7-24T16:22:33Z
2022-07-24T14:23:49Z,42.805,6.029,13.3011,4.60042,2470.614,2022-7-24T16:25:36Z
2022-07-24T14:26:52Z,42.805,6.029,13.3009,4.60042,2470.6,2022-7-24T16:28:39Z
2022-07-24T14:29:55Z,42.805,6.029,13.3004,4.60042,2470.6,2022-7-24T16:31:42Z
2022-07-24T14:32:58Z,42.805,6.029,13.3008,4.60042,2470.646,2022-7-24T16:34:45Z
2022-07-24T14:36:01Z,42.805,6.029,13.3007,4.60042,2470.6,2022-7-24T16:37:49Z
2022-07-24T14:39:05Z,42.805,6.029,13.3006,4.60042,2470.624,2022-7-24T16:40:52Z
2022-07-24T14:42:08Z,42.805,6.029,13.3006,4.60043,2470.637,2022-7-24T16:43:55Z
2022-07-24T14:45:11Z,42.805,6.029,13.3000,4.60042,2470.624,2022-7-24T16:46:58Z
2022-07-24T14:48:14Z,42.805,6.029,13.3006,4.60043,2470.6,2022-7-24T16:50:01Z
2022-07-24T14:51:17Z,42.805,6.029,13.3006,4.60042,2470.6,2022-7-24T16:53:04Z
2022-07-24T14:54:20Z,42.805,6.029,13.3009,4.60044,2470.637,2022-7-24T16:56:07Z
2022-07-24T14:57:23Z,42.805,6.029,13.3006,4.60044,2470.614,2022-7-24T16:59:10Z
2022-07-24T15:00:26Z,42.805,6.029,13.3004,4.60043,2470.6,2022-7-24T17:02:14Z
2022-07-24T15:03:30Z,42.805,6.029,13.3005,4.60042,2470.624,2022-7-24T17:05:17Z
2022-07-24T15:06:33Z,42.805,6.029,13.3006,4.60042,2470.646,2022-7-24T17:08:20Z
2022-07-24T15:09:36Z,42.805,6.029,13.3006,4.60043,2470.684,2022-7-24T17:11:23Z
2022-07-24T15:12:39Z,42.805,6.029,13.3004,4.60043,2470.624,2022-7-24T17:14:26Z